SCP
1 1 1 1 0 0 0 0 0 0 0 0 0 0 0 0 0 0 0 1 1 1 1 1 1 0 0 0 0 0 0 0 0 0 0 0 0 0 0 0 0 0 0
1 1 1 1 1 1 1 0 0 0 0 0 0 0 0 0 0 1 0 1 1 1 1 1 0 0 0 0 0 0 0 0 0 0 0 0 0 0 0 0 0 0 0
1 1 1 1 1 1 1 1 1 1 1 1 1 1 1 1 1 1 1 0 0 0 0 0 0 0 0 0 0 0 0 0 0 0 0 0 0 0 0 0 0 0 0
1 1 1 1 1 1 1 1 1 1 1 1 1 1 1 1 1 1 0 0 0 0 0 0 0 0 0 0 0 0 0 0 0 0 0 0 0 0 0 0 0 0 0
1 1 1 1 1 1 1 1 1 1 1 1 1 1 1 1 0 0 0 0 0 0 0 0 0 0 0 0 0 0 0 0 0 0 0 0 0 0 0 0 0 0 0
1 1 1 1 1 1 1 1 1 1 1 1 0 0 0 0 0 0 0 0 0 0 0 0 0 0 0 0 0 0 0 0 0 0 0 0 0 0 0 0 0 0 0
1 1 1 1 1 1 1 1 1 1 1 1 0 0 0 0 0 0 0 0 0 0 0 0 0 0 0 0 0 0 0 0 0 0 0 0 0 0 0 0 0 0 0
1 1 1 1 1 1 1 1 1 1 1 1 0 0 0 0 0 0 0 0 0 0 0 0 0 0 0 0 0 0 0 0 0 0 0 0 0 0 0 0 0 0 0
1 1 1 1 1 1 1 1 1 1 1 0 0 0 0 0 0 0 0 0 0 0 0 0 0 0 0 0 0 0 0 0 0 0 0 0 0 0 0 0 0 0 0
1 1 1 1 1 1 1 1 1 1 0 0 0 0 0 0 0 0 0 0 0 0 0 0 0 0 0 0 0 0 0 0 0 0 0 0 0 0 0 0 0 0 0
0 0 0 0 0 0 0 0 0 0 0 0 0 0 0 0 0 0 0 0 0 0 0 0 0 0 0 0 0 0 0 0 0 0 0 0 0 0 0 0 0 0 0
0 0 0 0 0 0 0 0 0 0 0 0 0 0 0 0 0 0 0 0 0 0 0 0 0 0 0 0 0 0 0 0 0 0 0 0 0 0 0 0 0 0 0
0 0 0 0 0 0 0 0 0 0 0 0 0 0 0 0 0 0 0 0 0 0 0 0 0 0 0 0 0 0 0 0 0 0 0 0 0 0 0 0 0 0 0
0 0 0 0 0 0 0 0 0 0 0 0 0 0 0 0 0 0 0 0 0 0 0 0 0 0 0 0 0 0 0 0 0 0 0 0 0 0 0 0 0 0 0
0 0 0 0 0 0 0 0 0 0 0 0 0 0 0 0 0 0 0 0 0 0 0 0 0 0 0 0 0 0 0 0 0 0 0 0 0 0 0 0 0 0 0
0 0 0 0 0 0 0 0 0 0 0 0 0 0 0 0 0 0 0 0 0 0 0 0 0 0 0 0 0 0 0 0 0 0 0 0 -0 -0 -0 0 0 0 0
0 0 0 0 0 0 0 0 0 0 0 0 0 0 0 0 0 0 0 0 0 0 0 0 0 0 0 0 0 0 0 0 0 0 0 0 0 -0 -0 -0 -0 0 0
0 0 0 0 0 0 0 0 0 0 0 0 0 0 0 0 0 0 0 0 0 0 0 0 0 0 0 0 0 0 0 0 0 0 0 0 0 0 0 -0 0 0 0
0 0 0 0 0 0 0 0 0 0 0 0 0 0 0 0 0 0 0 0 0 0 0 0 0 0 0 0 0 0 0 0 0 0 0 0 0 0 0 0 0 0 0
0 0 0 0 0 0 0 0 0 0 0 0 0 0 0 0 0 0 0 0 0 0 0 0 0 0 0 0 0 0 0 0 0 0 0 0 0 0 0 0 0 0 0
0 0 0 0 0 0 0 0 0 0 0 0 0 0 0 0 0 0 0 0 0 0 0 0 0 0 0 0 0 0 0 0 0 0 0 0 0 0 0 0 0 0 0
0 0 0 0 0 0 0 0 0 0 0 0 0 0 0 0 0 0 0 0 0 0 0 0 0 0 0 0 0 0 0 0 0 0 0 0 0 0 0 0 0 0 0
0 0 0 0 0 0 0 0 0 0 0 0 0 0 0 0 0 0 0 0 0 0 0 0 0 0 0 0 0 0 0 0 0 0 0 0 0 0 0 0 0 0 0
0 0 0 0 0 0 0 0 0 0 0 0 0 0 0 0 0 0 0 0 0 0 0 0 0 0 0 0 0 0 0 0 0 0 0 0 0 0 0 0 0 0 0
0 0 0 0 0 0 0 0 0 0 0 0 0 0 0 0 0 0 0 0 0 0 0 0 0 0 0 0 0 0 0 0 0 0 0 0 0 0 0 0 0 0 0
0 0 0 0 0 0 0 0 0 0 0 0 0 0 0 0 0 0 0 0 0 0 0 0 0 0 0 0 0 0 0 0 0 0 0 0 0 0 0 0 0 0 0
Wind_Speed
4 4 5 5 6 6 6 5 5 4 3 2 2 2 0 2 3 5 5 8 8 6 5 4 2 1 1 2 3 4 5 6 6 4 3 3 3 4 4 4 4 4 4
2 2 3 3 3 3 4 3 3 3 2 1 1 2 3 3 4 5 6 7 10 9 8 7 5 3 3 2 2 1 1 1 2 1 1 2 3 3 3 2 2 2 2
2 2 2 2 1 1 2 2 2 2 2 1 1 2 4 4 5 6 6 5 6 11 12 11 10 9 8 7 6 6 5 5 3 2 2 2 2 2 2 1 1 1 1
2 1 2 2 1 1 1 2 1 2 2 2 2 3 3 3 5 6 6 5 5 6 9 13 12 12 12 12 12 12 12 11 10 8 7 6 5 5 4 3 3 3 2
3 3 2 1 1 1 1 1 2 2 2 2 3 3 3 5 5 6 6 7 6 6 6 10 13 14 14 14 14 13 12 12 12 11 11 11 10 9 7 6 5 5 4
3 3 2 2 2 2 1 1 2 2 2 2 3 4 5 4 4 5 6 6 6 7 6 7 6 10 16 16 15 14 14 14 14 13 12 12 12 11 9 7 7 6 6
2 2 2 3 3 2 3 3 2 3 3 3 3 3 4 5 5 4 5 5 6 7 7 7 6 5 7 15 17 16 15 15 14 14 13 12 11 11 11 10 9 7 6
2 3 2 2 2 2 2 2 2 2 2 2 2 3 3 2 4 5 4 5 5 5 7 8 7 6 5 4 11 15 14 14 13 13 13 12 11 10 9 8 8 8 7
4 4 4 3 2 2 2 2 2 2 2 1 1 1 2 3 3 3 5 5 5 5 5 5 6 6 6 5 5 10 13 12 12 12 12 12 12 11 11 10 9 8 8
6 6 5 5 4 4 3 3 3 2 2 2 2 2 2 3 4 4 3 3 4 5 4 4 5 4 5 5 6 9 10 10 10 11 11 11 11 11 11 11 11 10 9
8 7 7 7 6 6 6 6 6 5 4 3 2 2 2 2 3 3 4 3 3 3 3 3 2 3 3 4 4 6 8 8 8 9 10 10 10 10 11 11 11 11 11
6 8 8 7 7 6 7 7 7 8 6 6 5 4 3 3 2 2 3 4 4 2 2 2 2 1 2 4 5 6 5 5 5 6 7 8 9 9 10 10 11 11 11
6 7 7 8 7 8 8 8 8 8 8 7 6 4 4 4 2 3 3 3 3 3 2 1 1 1 2 3 3 3 4 3 2 3 4 6 7 8 9 9 10 10 10
7 8 8 9 9 8 8 8 8 7 7 7 7 6 4 4 4 3 2 2 2 3 2 2 2 2 1 2 2 2 4 5 3 1 1 3 5 6 8 8 9 9 10
8 9 9 9 9 8 8 8 7 7 6 6 6 6 5 4 4 4 3 2 1 3 3 2 2 2 1 2 1 1 3 7 6 4 2 1 2 4 5 6 7 8 8
9 9 9 9 8 8 7 8 7 7 8 7 6 7 6 4 4 3 3 3 4 3 3 3 3 3 2 2 1 2 2 7 8 7 5 3 2 2 3 4 5 7 8
9 8 8 8 8 8 7 7 7 7 7 7 6 7 6 6 5 4 4 4 4 4 3 2 2 3 2 0 0 2 3 2 4 8 8 6 4 2 2 3 4 5 7
8 8 8 8 8 7 6 7 8 7 7 7 6 6 6 6 6 5 4 4 3 3 3 2 1 2 1 1 1 3 3 1 2 8 10 7 6 4 2 1 2 3 5
8 8 7 8 8 7 7 7 7 7 6 6 6 6 7 7 6 5 5 5 4 4 2 1 1 1 1 1 2 3 2 2 2 5 8 8 8 6 3 2 1 2 3
7 7 6 6 6 7 7 6 7 6 6 7 7 7 7 7 6 6 5 5 5 4 3 2 2 2 2 3 3 3 2 2 2 2 0 3 6 7 5 4 3 2 2
7 6 6 7 8 8 8 7 4 7 5 6 6 6 6 6 6 5 5 4 5 4 4 4 3 4 3 3 3 3 3 3 2 2 2 1 2 3 4 5 5 4 3
5 6 7 9 9 8 10 13 9 5 5 5 4 4 5 4 3 2 2 2 3 4 4 4 3 4 4 4 4 4 3 4 3 2 2 3 0 1 3 4 6 6 4
6 8 8 8 8 8 11 12 12 4 4 4 4 3 5 8 7 5 3 2 2 3 1 2 3 4 3 4 4 5 4 4 3 3 2 3 1 1 1 4 8 7 6
6 6 7 7 6 7 10 11 12 3 3 4 4 6 6 7 8 7 5 3 2 1 2 1 2 3 3 3 3 4 5 5 3 2 2 2 2 1 1 3 8 8 8
5 5 6 7 6 6 8 10 10 3 2 3 6 7 6 6 8 10 6 5 5 4 2 2 4 6 7 7 4 3 4 4 4 2 2 2 2 2 1 1 4 9 9
5 6 6 6 7 6 6 8 9 2 2 3 5 6 9 6 6 8 5 5 5 5 6 6 5 6 6 6 6 4 3 3 3 3 3 3 3 3 2 2 1 3 5
Wind_Direction
201 170 174 176 189 185 186 187 199 189 192 205 228 213 197 53 65 82 104 105 102 98 98 99 99 128 222 244 244 236 242 245 245 241 240 243 243 245 246 249 253 254 253
194 171 160 170 196 170 167 176 169 149 137 85 24 21 42 50 67 90 102 98 89 83 76 72 68 62 60 62 57 38 305 245 228 212 233 263 260 251 252 257 268 276 280
158 177 139 165 220 140 127 122 128 109 127 124 77 52 51 44 48 68 87 94 89 77 74 71 68 67 68 66 68 61 55 51 49 47 15 333 306 293 286 305 325 317 328
150 154 142 166 178 75 80 102 97 103 93 84 72 59 65 60 59 65 70 73 80 86 75 74 70 68 67 66 68 68 65 60 58 56 50 40 32 30 31 23 11 359 344
177 162 158 128 139 119 104 178 135 130 122 108 94 80 68 65 61 69 74 70 71 79 81 78 72 67 65 64 64 64 63 59 58 55 53 50 47 44 42 40 32 16 357
190 159 156 154 151 145 138 115 119 124 123 115 99 83 72 70 60 60 71 75 71 74 74 75 72 67 65 63 60 58 58 59 58 56 52 49 47 43 40 39 37 28 21
162 157 163 154 153 151 155 148 138 136 131 127 116 99 75 70 70 65 65 72 75 74 72 69 66 67 67 62 58 57 55 55 55 52 49 44 41 38 35 32 32 28 24
118 142 127 128 153 145 142 150 145 142 129 129 136 143 139 104 60 56 64 69 69 70 74 75 72 68 69 70 63 59 53 50 50 48 45 41 35 30 25 22 22 19 13
69 76 92 99 100 119 126 121 109 124 145 128 90 132 149 149 117 68 60 63 65 64 71 81 77 75 78 72 66 56 54 46 44 42 39 37 33 28 22 18 10 6 2
61 65 71 76 76 76 75 77 72 87 117 135 111 74 85 109 131 127 99 85 82 73 66 71 80 81 84 88 80 69 60 50 42 37 32 30 28 25 22 19 14 5 357
60 62 65 67 70 69 67 64 64 65 62 65 76 85 84 81 89 126 135 135 103 85 86 88 96 96 100 102 99 85 71 58 47 37 30 26 23 21 17 14 12 10 8
67 64 66 68 69 71 69 68 70 70 68 64 60 59 64 70 76 101 126 140 128 116 103 92 91 87 107 101 93 101 93 73 53 36 26 20 17 15 12 9 8 7 6
75 70 73 70 69 70 70 69 69 66 65 64 59 55 56 53 49 74 100 123 133 135 123 127 125 81 76 108 108 120 149 140 92 48 28 18 13 10 6 5 5 3 2
82 78 77 77 76 75 75 73 72 68 65 66 64 56 57 46 43 55 74 102 131 134 122 117 102 93 48 117 130 218 170 180 168 137 22 7 4 1 359 359 360 359 359
84 79 79 78 77 76 75 76 73 68 63 62 60 57 60 51 43 40 50 62 82 117 125 141 113 90 38 103 147 259 163 192 189 192 219 286 342 350 354 357 356 356 355
84 84 81 79 78 76 76 78 77 73 73 67 59 47 43 40 44 41 38 39 41 66 90 97 102 93 54 34 155 306 266 200 193 198 212 221 250 324 340 346 351 351 349
85 86 87 85 80 76 76 80 82 76 76 72 73 69 58 40 32 31 36 47 43 51 75 80 101 129 130 36 298 288 275 201 181 197 207 211 216 241 306 343 352 352 352
85 85 85 86 85 82 77 78 84 80 79 75 69 65 61 58 47 31 30 47 49 49 62 70 91 122 147 189 258 284 303 27 187 195 203 208 211 215 223 308 349 354 352
83 81 81 82 83 80 77 76 78 78 75 73 69 65 58 51 42 29 35 31 29 36 29 34 65 72 66 10 331 320 341 330 314 172 196 210 215 209 201 211 279 319 336
84 83 83 85 86 81 75 78 84 80 77 73 68 63 57 51 36 12 40 28 23 8 1 12 41 44 41 12 10 346 351 346 338 16 317 191 197 197 190 194 214 248 296
88 84 82 77 73 63 45 39 81 91 85 87 88 90 85 78 61 38 42 25 19 12 14 19 31 35 30 16 6 340 353 338 339 24 348 324 159 178 187 193 203 225 251
85 83 76 72 68 62 41 34 36 68 78 79 84 101 121 103 89 67 36 24 29 29 23 12 27 26 28 18 355 347 357 352 338 345 344 321 40 180 186 179 190 205 233
88 85 84 84 78 53 37 30 20 21 80 75 63 51 71 68 44 20 351 277 242 234 251 11 12 7 11 16 357 345 340 328 302 293 322 316 331 311 202 150 184 207 230
91 93 94 94 87 57 34 24 2 10 88 86 73 63 67 60 32 8 346 7 48 154 206 221 356 341 356 354 341 322 311 315 310 309 331 310 317 317 109 164 203 217 233
103 105 107 105 96 72 38 26 5 347 94 97 79 57 60 67 30 11 1 14 27 22 22 300 287 286 291 289 290 318 324 342 337 337 357 336 327 317 275 196 207 218 236
113 109 106 102 98 85 46 28 3 350 88 95 100 89 67 57 32 20 8 9 18 360 345 329 297 272 261 262 245 230 283 326 333 338 353 348 338 344 331 295 246 207 234